Temp
11 11 10 10 10 10 10 10 10 9 9 9 9 9 9 9 9 9 9 9 10 11 11 10 11 12 13 13 12 12 12 12 12 12 12 12 12 12 12 12 13 13 13 14 15 16 16 16 15 14 14 14 13 12 12 12 12 11 10 10 11 11 11
11 11 10 10 10 10 10 10 10 10 9 9 9 9 9 9 8 8 8 8 9 10 11 11 11 11 12 12 12 12 12 12 12 12 12 12 11 12 12 12 12 12 13 14 14 15 16 17 17 16 14 13 12 12 11 11 11 11 10 10 11 11 11
10 10 10 10 10 10 10 10 10 9 9 9 9 9 9 9 8 8 8 8 8 8 10 11 11 11 12 12 12 12 12 11 11 11 11 12 12 12 12 12 12 12 12 13 14 14 15 16 17 16 15 13 12 12 11 11 11 11 11 10 10 11 11
10 10 10 10 10 10 10 10 10 9 9 9 10 10 10 10 9 8 8 8 8 8 9 10 10 11 12 12 12 12 12 12 12 11 11 11 12 12 12 12 12 12 12 13 13 14 14 15 16 16 16 15 13 13 12 11 11 11 11 11 10 11 11
10 10 10 10 10 10 10 10 10 9 9 9 8 9 10 10 10 9 8 8 7 7 8 9 9 10 11 11 12 11 12 12 12 11 11 10 11 11 12 13 13 12 12 12 13 13 14 14 15 15 16 16 15 14 13 11 11 12 12 12 11 11 11
10 10 10 10 10 10 10 9 9 9 9 9 8 8 9 9 10 10 9 8 8 7 7 7 9 10 10 10 11 11 11 12 11 11 11 11 11 11 12 13 13 13 13 13 12 13 13 13 14 14 15 16 16 15 14 12 12 12 12 12 12 11 11
9 9 9 9 9 9 9 9 9 9 9 9 9 9 9 9 9 9 9 9 8 8 7 7 8 9 10 10 10 11 11 11 11 11 11 11 11 11 12 12 12 13 13 13 12 12 13 13 13 14 15 16 16 16 15 14 13 13 13 12 12 12 11
9 9 9 9 9 9 9 9 9 9 9 9 9 9 9 9 9 9 8 9 9 9 8 7 7 7 8 9 10 10 11 11 11 11 11 11 11 11 12 12 12 12 13 13 12 12 13 13 13 14 14 15 16 16 16 15 14 13 13 12 11 11 11
9 9 9 9 9 9 9 9 9 9 9 9 9 8 9 9 9 9 8 8 8 9 8 7 7 7 7 8 9 9 10 10 11 11 11 11 11 11 11 11 12 12 12 13 12 12 13 13 13 13 14 14 15 16 16 16 15 14 13 12 11 10 10
9 9 8 8 9 9 8 9 8 8 8 8 8 8 8 8 8 8 8 8 8 8 8 8 7 7 7 7 7 8 9 10 10 11 11 11 12 11 11 11 11 11 12 12 12 12 12 13 13 13 14 14 15 16 16 16 16 15 14 12 11 10 10
8 8 8 8 8 8 8 8 8 8 8 8 8 7 7 7 7 7 7 8 8 8 8 8 8 7 6 7 7 7 8 9 9 10 11 11 11 11 11 11 11 11 11 12 12 12 12 12 13 13 13 14 14 15 16 16 16 15 15 13 12 11 10
8 8 8 8 8 8 8 8 8 7 7 7 7 6 5 5 5 5 6 6 7 7 8 8 7 7 6 6 7 7 8 8 9 9 10 11 11 11 11 11 11 11 12 12 12 12 12 12 13 13 13 13 14 14 15 16 16 16 15 13 12 12 11
8 8 8 8 7 7 7 7 6 6 5 5 5 5 4 3 3 4 4 5 5 6 7 7 7 6 6 6 6 7 7 8 8 9 9 10 11 11 11 11 11 12 12 11 12 12 12 12 12 13 12 13 14 14 14 15 15 16 15 13 13 12 11
7 7 7 7 7 6 5 4 4 4 3 3 3 3 3 2 2 2 3 3 3 4 5 6 6 6 6 6 6 6 7 7 8 9 9 10 10 11 11 11 11 12 11 11 12 12 12 11 12 12 12 12 13 13 14 14 14 15 14 13 13 12 12
7 7 7 7 6 5 4 3 2 2 2 2 2 2 2 2 2 2 2 2 3 3 3 4 5 5 5 6 6 6 6 7 7 8 9 9 10 10 10 11 11 11 11 11 12 12 12 12 11 12 12 12 13 13 13 13 14 15 14 12 12 11 12
7 7 6 6 5 4 3 2 2 2 2 1 1 1 2 2 1 1 1 1 2 3 3 3 4 4 5 5 6 6 6 6 7 7 8 9 9 10 10 10 11 11 11 11 11 11 12 12 11 11 12 12 12 13 13 13 14 15 13 11 11 11 12
7 6 6 5 3 2 2 2 2 1 1 1 1 1 1 1 1 1 1 1 2 2 2 3 3 4 4 5 5 6 6 6 6 7 7 8 9 10 10 10 10 11 11 11 11 11 11 11 11 11 11 12 12 13 13 13 14 14 13 11 10 10 12
6 6 5 4 2 2 2 2 1 1 1 1 1 1 1 1 1 1 1 1 1 2 2 3 3 3 3 4 5 5 6 6 6 6 7 7 8 9 9 9 10 11 11 11 11 11 11 12 12 11 12 12 12 12 13 13 13 13 13 12 10 10 11
6 5 3 2 2 2 1 1 1 1 1 1 1 1 1 1 1 1 1 1 1 2 2 3 3 4 4 4 4 5 5 6 6 6 6 7 7 8 8 9 9 10 10 11 12 11 11 11 12 12 12 12 12 12 13 13 13 13 13 11 10 10 11
4 3 2 2 1 1 1 1 1 1 1 1 1 1 1 1 1 1 1 1 1 2 2 3 4 4 4 4 4 4 5 5 5 5 6 7 7 7 8 8 9 10 10 11 12 12 11 11 11 12 12 12 12 12 12 12 13 13 13 11 10 11 12
3 2 2 1 1 1 1 1 1 1 1 1 1 1 1 0 0 0 1 2 2 2 2 2 3 4 4 5 5 5 4 5 5 5 5 6 7 7 7 8 8 10 10 11 11 12 12 11 11 12 12 12 12 12 12 13 13 13 12 11 10 11 12
2 2 1 1 1 1 1 1 1 1 1 1 1 1 0 0 0 -0 0 1 2 1 1 2 3 4 4 5 5 5 4 4 4 5 5 6 6 7 7 7 8 9 10 11 11 11 12 11 11 11 12 12 12 12 12 12 12 12 12 10 10 11 11
2 2 1 1 1 1 1 1 1 1 1 1 0 0 0 0 -0 -0 -0 0 0 1 1 2 4 5 5 5 4 3 3 3 3 4 4 5 6 7 7 7 8 9 10 11 11 10 11 12 11 11 12 12 12 11 12 12 12 12 11 10 11 11 11
2 1 1 1 1 0 0 0 0 0 0 0 0 0 0 -0 -0 -0 -0 -0 -0 -0 0 2 3 4 5 5 4 2 2 2 2 3 4 5 6 6 7 7 8 8 9 11 11 10 11 11 11 11 11 11 12 11 11 12 12 12 12 11 11 12 12
1 1 1 1 0 0 0 0 0 0 0 0 0 -0 -0 -0 -0 -0 -1 -1 -1 -1 -0 0 1 3 4 4 3 2 1 1 2 3 4 5 6 6 7 7 8 8 9 10 11 11 10 10 11 11 11 11 11 11 11 12 12 12 12 11 11 12 12
1 1 1 0 0 0 0 -0 -0 -0 -0 -0 -0 -1 -0 -1 -1 -1 -1 -1 -1 -1 -1 -1 -0 1 2 2 1 1 0 1 1 2 3 5 6 6 7 8 8 8 9 10 11 11 11 11 10 11 11 11 11 11 12 11 11 12 12 12 12 12 12
1 1 0 0 0 0 -0 -1 -1 -0 -0 -1 -1 -1 -0 -1 -1 -1 -1 -1 -1 -1 -1 -1 -1 -1 -0 0 0 -0 -0 -0 0 1 2 4 5 6 7 7 8 8 9 10 10 10 11 11 11 10 11 11 11 11 11 11 11 11 11 11 12 12 13
1 0 0 -0 0 -0 -1 -1 -1 -1 -1 -1 -1 -1 -1 -1 -1 -1 -2 -2 -2 -2 -2 -1 -1 -1 -1 -1 -1 -1 -1 -1 -0 1 1 3 5 6 6 7 8 8 9 10 10 10 11 11 11 11 11 11 11 11 11 10 11 11 11 11 11 11 12
1 0 0 0 0 -0 -1 -1 -1 -1 -1 -2 -2 -2 -2 -2 -2 -2 -2 -2 -2 -2 -1 -1 -1 -1 -1 -1 -1 -1 -1 -1 -0 0 1 2 4 5 6 7 8 8 9 9 10 10 11 11 11 11 11 11 10 10 10 10 10 11 11 11 11 11 11
1 0 0 0 0 -1 -1 -1 -1 -2 -2 -2 -2 -2 -2 -2 -2 -2 -2 -2 -2 -2 -2 -1 -1 -1 -1 -1 -1 -1 -1 -0 -0 0 1 2 3 4 6 7 7 8 9 9 9 10 11 11 10 10 10 10 10 10 10 10 10 11 11 10 10 11 11
1 1 0 0 -0 -1 -1 -1 -1 -2 -2 -2 -2 -2 -2 -2 -3 -3 -3 -3 -2 -2 -2 -1 -1 -1 -1 -0 0 -0 -1 -0 0 0 1 2 2 4 5 6 7 7 8 9 9 9 10 10 10 10 10 10 10 9 10 10 10 10 10 10 10 10 10
1 1 0 -0 -1 -1 -1 -1 -2 -2 -2 -2 -2 -3 -3 -3 -3 -3 -3 -3 -3 -2 -2 -2 -1 -1 -1 -0 1 0 -0 -0 0 1 1 2 3 3 4 6 7 7 8 9 9 9 10 10 10 10 10 10 10 9 10 10 10 10 10 10 10 10 10
1 0 -0 -1 -1 -1 -1 -2 -2 -2 -2 -2 -2 -3 -3 -3 -3 -3 -3 -3 -3 -2 -2 -2 -1 -1 -1 -0 1 0 -0 -0 1 1 2 3 3 4 4 5 6 7 8 8 8 9 10 10 10 10 10 10 9 9 9 10 10 10 10 10 10 11 11
0 0 -1 -1 -1 -1 -2 -2 -2 -2 -2 -3 -3 -3 -3 -3 -4 -3 -3 -3 -3 -2 -2 -1 -1 -1 -1 -0 1 1 1 1 1 1 2 3 3 4 5 6 7 7 8 8 8 8 9 9 9 10 10 10 9 9 10 10 10 10 10 10 11 11 11
0 -0 -1 -1 -1 -2 -2 -2 -2 -2 -3 -3 -3 -3 -3 -4 -4 -3 -3 -3 -3 -2 -2 -1 -1 -0 -0 0 1 2 2 1 2 2 3 3 4 4 5 6 7 7 7 7 7 8 8 8 9 9 9 9 9 9 10 10 9 10 10 10 10 10 10
0 0 -0 -1 -1 -2 -2 -2 -3 -3 -3 -3 -4 -4 -4 -4 -4 -4 -3 -3 -2 -2 -1 -1 -0 1 1 1 2 2 2 2 3 3 3 4 4 5 5 6 6 6 7 7 7 7 8 8 8 8 8 8 8 9 9 9 9 9 10 10 10 9 9
0 0 -0 -1 -2 -2 -2 -3 -3 -3 -3 -4 -4 -4 -4 -4 -4 -3 -3 -3 -2 -1 -1 -0 1 1 2 3 3 3 3 3 4 4 4 4 5 5 5 6 6 6 7 7 7 7 7 8 8 8 8 8 8 8 9 8 9 9 10 10 9 8 7
Height
1527 1526 1525 1525 1524 1523 1522 1522 1521 1520 1519 1519 1519 1519 1520 1520 1520 1521 1521 1522 1522 1522 1523 1523 1524 1525 1527 1528 1529 1530 1530 1531 1532 1534 1538 1540 1541 1543 1545 1546 1547 1548 1548 1548 1549 1549 1549 1549 1550 1551 1552 1553 1553 1553 1553 1553 1553 1553 1553 1553 1554 1555 1555
1526 1525 1524 1523 1523 1522 1521 1521 1520 1520 1519 1518 1518 1517 1517 1518 1518 1518 1518 1519 1519 1520 1520 1520 1521 1522 1524 1526 1527 1527 1528 1528 1528 1530 1533 1535 1537 1540 1542 1543 1544 1545 1546 1547 1547 1547 1547 1547 1546 1547 1549 1550 1550 1549 1550 1550 1551 1552 1551 1551 1552 1554 1554
1525 1524 1524 1523 1522 1521 1520 1519 1519 1518 1518 1517 1516 1516 1515 1515 1515 1516 1516 1516 1517 1517 1517 1518 1519 1519 1520 1522 1524 1525 1525 1526 1526 1527 1529 1531 1534 1537 1538 1540 1540 1542 1543 1544 1544 1545 1546 1545 1544 1544 1545 1546 1546 1546 1546 1547 1548 1549 1549 1549 1550 1552 1553
1523 1523 1523 1522 1521 1520 1519 1518 1517 1517 1516 1515 1515 1514 1514 1513 1513 1513 1513 1514 1514 1515 1515 1515 1516 1516 1517 1519 1521 1522 1522 1523 1524 1524 1525 1527 1530 1532 1534 1536 1537 1538 1540 1540 1541 1542 1543 1543 1543 1543 1543 1543 1544 1543 1543 1544 1546 1547 1548 1548 1548 1550 1551
1521 1521 1521 1521 1520 1519 1518 1517 1516 1516 1515 1514 1513 1513 1512 1512 1511 1511 1511 1511 1512 1512 1513 1513 1513 1514 1514 1516 1517 1518 1519 1520 1520 1521 1521 1522 1524 1527 1529 1532 1534 1535 1536 1538 1539 1541 1541 1541 1541 1541 1541 1541 1542 1542 1541 1542 1543 1545 1546 1547 1547 1548 1550
1519 1519 1519 1519 1518 1517 1516 1515 1514 1514 1513 1513 1512 1511 1510 1510 1509 1509 1508 1508 1509 1509 1510 1510 1510 1511 1511 1512 1513 1515 1515 1516 1516 1517 1517 1518 1520 1522 1525 1528 1530 1531 1533 1535 1536 1538 1538 1538 1539 1539 1538 1538 1539 1540 1540 1540 1542 1543 1544 1545 1546 1547 1548
1517 1517 1517 1517 1516 1515 1515 1513 1512 1512 1511 1510 1510 1509 1509 1508 1508 1507 1507 1506 1506 1506 1506 1506 1506 1507 1507 1508 1509 1511 1512 1512 1513 1513 1514 1515 1516 1518 1521 1523 1525 1527 1529 1531 1533 1534 1534 1535 1535 1536 1536 1536 1536 1538 1538 1538 1540 1541 1542 1543 1545 1546 1546
1514 1514 1514 1514 1514 1514 1513 1512 1511 1510 1509 1508 1507 1507 1506 1505 1505 1505 1504 1504 1503 1503 1503 1503 1503 1503 1504 1504 1505 1506 1507 1508 1509 1510 1510 1511 1512 1514 1516 1518 1521 1523 1524 1526 1528 1529 1530 1531 1532 1533 1534 1533 1534 1535 1536 1536 1538 1539 1539 1540 1541 1543 1543
1512 1512 1512 1512 1511 1511 1511 1510 1509 1508 1507 1505 1504 1504 1503 1502 1502 1501 1501 1501 1500 1500 1499 1499 1500 1500 1500 1500 1501 1502 1503 1504 1505 1506 1507 1507 1508 1509 1511 1514 1516 1517 1519 1521 1523 1524 1526 1527 1528 1529 1530 1531 1530 1531 1533 1534 1534 1535 1537 1538 1538 1540 1540
1509 1509 1509 1508 1508 1508 1508 1507 1506 1505 1504 1503 1502 1501 1499 1498 1498 1497 1497 1497 1497 1497 1496 1496 1496 1496 1497 1497 1497 1498 1499 1500 1501 1502 1503 1503 1504 1506 1507 1508 1510 1512 1515 1517 1518 1520 1522 1523 1524 1525 1526 1527 1528 1528 1528 1530 1531 1532 1534 1534 1535 1537 1538
1506 1506 1505 1505 1505 1504 1504 1503 1503 1502 1501 1500 1499 1497 1496 1494 1494 1493 1492 1492 1492 1493 1492 1492 1492 1492 1493 1493 1493 1494 1495 1496 1497 1497 1498 1499 1500 1502 1502 1504 1505 1507 1510 1512 1513 1515 1517 1519 1519 1521 1522 1524 1525 1525 1525 1526 1527 1529 1531 1531 1532 1534 1534
1502 1502 1502 1501 1501 1500 1500 1499 1498 1498 1497 1496 1495 1494 1492 1491 1490 1489 1488 1488 1488 1488 1488 1488 1488 1488 1488 1489 1489 1490 1491 1492 1493 1493 1494 1495 1496 1497 1498 1499 1500 1501 1504 1506 1507 1509 1512 1514 1515 1517 1518 1520 1521 1521 1523 1524 1523 1525 1527 1528 1530 1531 1530
1499 1499 1498 1498 1497 1496 1495 1494 1493 1493 1492 1492 1491 1490 1489 1487 1486 1485 1485 1484 1483 1483 1483 1483 1484 1484 1484 1484 1485 1486 1486 1488 1489 1489 1490 1491 1492 1493 1493 1494 1494 1496 1498 1500 1501 1503 1506 1509 1511 1513 1514 1516 1518 1518 1520 1521 1521 1522 1523 1525 1528 1527 1526
1497 1496 1495 1494 1493 1492 1491 1490 1489 1488 1487 1487 1486 1486 1485 1484 1482 1481 1480 1480 1479 1479 1478 1478 1479 1479 1479 1479 1480 1481 1482 1483 1484 1485 1486 1487 1487 1488 1488 1489 1490 1492 1493 1494 1495 1498 1501 1504 1506 1509 1510 1512 1514 1515 1516 1517 1519 1520 1520 1522 1524 1523 1523
1494 1493 1492 1491 1490 1489 1488 1487 1486 1485 1483 1483 1482 1481 1480 1479 1479 1477 1476 1476 1475 1474 1474 1474 1474 1474 1474 1474 1475 1476 1477 1478 1479 1480 1481 1482 1483 1484 1484 1484 1485 1487 1489 1489 1491 1493 1495 1498 1501 1503 1505 1508 1510 1511 1513 1514 1516 1518 1517 1518 1520 1519 1520
1491 1490 1489 1488 1487 1486 1485 1484 1483 1482 1480 1479 1478 1477 1476 1475 1474 1473 1472 1471 1470 1470 1469 1469 1468 1469 1469 1469 1470 1470 1471 1473 1474 1474 1476 1476 1478 1479 1480 1480 1480 1482 1484 1485 1486 1488 1490 1492 1495 1498 1500 1503 1505 1508 1510 1511 1513 1514 1514 1514 1515 1515 1517
1488 1487 1486 1485 1484 1483 1482 1481 1480 1479 1477 1475 1474 1473 1472 1471 1470 1469 1468 1466 1465 1465 1464 1463 1463 1463 1463 1464 1464 1465 1466 1467 1468 1469 1470 1471 1473 1474 1475 1475 1475 1477 1479 1480 1481 1483 1484 1485 1488 1492 1495 1498 1500 1503 1506 1508 1510 1511 1510 1511 1512 1512 1514
1485 1484 1483 1482 1481 1480 1479 1478 1477 1475 1473 1471 1470 1469 1468 1466 1465 1464 1463 1462 1461 1459 1459 1458 1458 1457 1457 1458 1458 1459 1460 1461 1461 1463 1464 1465 1466 1468 1469 1470 1471 1472 1474 1474 1475 1477 1479 1480 1483 1487 1490 1492 1495 1498 1501 1504 1506 1507 1507 1507 1509 1509 1510
1482 1481 1480 1479 1478 1477 1476 1474 1473 1471 1469 1467 1466 1465 1463 1462 1461 1459 1457 1456 1455 1454 1453 1452 1452 1451 1451 1452 1452 1452 1453 1455 1456 1457 1458 1459 1460 1462 1463 1464 1465 1467 1469 1468 1468 1471 1474 1476 1478 1480 1483 1486 1490 1493 1496 1498 1501 1503 1503 1504 1505 1505 1507
1478 1477 1476 1475 1474 1473 1472 1470 1468 1467 1465 1463 1461 1460 1458 1457 1455 1453 1452 1450 1449 1448 1447 1446 1445 1445 1445 1445 1446 1446 1447 1448 1450 1451 1452 1453 1454 1455 1456 1458 1459 1461 1462 1462 1463 1465 1468 1471 1472 1474 1476 1480 1485 1488 1491 1493 1496 1498 1499 1500 1501 1501 1503
1475 1474 1473 1472 1471 1469 1468 1466 1464 1463 1461 1459 1457 1455 1453 1451 1450 1448 1446 1445 1443 1442 1441 1440 1439 1439 1439 1439 1440 1440 1441 1442 1443 1445 1446 1447 1448 1449 1450 1451 1453 1454 1455 1457 1458 1460 1463 1465 1468 1470 1471 1475 1480 1483 1485 1488 1491 1493 1495 1495 1496 1498 1500
1471 1471 1470 1469 1467 1466 1464 1462 1460 1459 1457 1454 1452 1450 1448 1446 1444 1442 1441 1439 1437 1436 1435 1433 1433 1433 1433 1434 1434 1435 1435 1436 1437 1438 1440 1442 1443 1443 1444 1445 1447 1448 1449 1451 1453 1455 1457 1461 1464 1466 1467 1470 1475 1478 1480 1483 1485 1488 1490 1491 1492 1494 1496
1469 1468 1467 1465 1464 1462 1461 1459 1456 1454 1452 1450 1448 1445 1443 1441 1439 1437 1435 1433 1431 1430 1428 1426 1426 1427 1427 1428 1429 1430 1430 1431 1432 1433 1434 1436 1437 1438 1439 1440 1441 1442 1444 1446 1449 1450 1452 1455 1459 1461 1463 1465 1469 1472 1475 1477 1480 1482 1485 1486 1487 1489 1491
1466 1465 1463 1462 1461 1459 1457 1455 1452 1450 1447 1445 1443 1441 1438 1436 1434 1432 1429 1427 1425 1423 1421 1419 1419 1420 1421 1422 1423 1424 1425 1426 1427 1427 1428 1430 1431 1432 1434 1435 1436 1438 1439 1441 1444 1445 1447 1450 1453 1456 1459 1461 1464 1467 1469 1472 1475 1477 1480 1482 1482 1485 1488
1463 1462 1460 1459 1458 1456 1454 1451 1448 1445 1443 1440 1438 1436 1433 1431 1428 1426 1424 1421 1419 1417 1415 1413 1413 1413 1414 1415 1416 1417 1419 1420 1421 1422 1423 1424 1426 1427 1429 1430 1431 1433 1433 1435 1438 1441 1442 1445 1448 1451 1454 1456 1459 1463 1465 1468 1470 1472 1475 1477 1478 1481 1484
1460 1459 1457 1456 1454 1453 1451 1447 1444 1441 1438 1436 1433 1430 1428 1425 1422 1420 1418 1415 1413 1411 1409 1407 1407 1407 1407 1408 1410 1411 1412 1412 1413 1415 1417 1418 1420 1422 1423 1425 1426 1427 1428 1430 1433 1436 1438 1440 1443 1446 1449 1451 1454 1458 1461 1464 1467 1469 1471 1473 1474 1477 1481
1457 1456 1454 1453 1452 1450 1447 1443 1440 1437 1433 1430 1427 1424 1421 1418 1415 1413 1411 1409 1406 1404 1402 1401 1401 1401 1401 1402 1403 1404 1405 1405 1406 1407 1409 1411 1414 1416 1418 1419 1421 1421 1423 1425 1428 1430 1433 1436 1438 1442 1445 1446 1448 1452 1456 1459 1463 1466 1468 1470 1471 1474 1477
1454 1453 1452 1450 1449 1446 1443 1439 1435 1432 1428 1425 1421 1418 1414 1411 1408 1406 1404 1402 1399 1396 1394 1394 1394 1394 1394 1395 1397 1398 1398 1398 1399 1399 1401 1404 1406 1409 1411 1413 1415 1416 1418 1420 1422 1425 1428 1431 1433 1436 1440 1442 1443 1447 1451 1454 1457 1461 1464 1466 1469 1471 1474
1452 1450 1449 1448 1446 1443 1439 1435 1431 1428 1424 1420 1416 1412 1408 1405 1402 1399 1397 1396 1393 1390 1388 1387 1387 1387 1387 1388 1390 1391 1391 1391 1392 1392 1394 1396 1399 1401 1404 1407 1409 1411 1413 1415 1417 1420 1423 1427 1429 1431 1435 1437 1438 1442 1446 1448 1451 1456 1458 1462 1465 1468 1471
1449 1448 1447 1445 1442 1439 1435 1432 1428 1424 1420 1415 1411 1407 1403 1400 1396 1393 1391 1389 1387 1383 1381 1380 1380 1379 1379 1381 1382 1383 1383 1384 1385 1386 1387 1389 1391 1394 1397 1399 1403 1405 1407 1410 1412 1415 1418 1422 1425 1426 1429 1433 1434 1437 1441 1443 1447 1451 1454 1458 1463 1465 1468
1446 1445 1444 1441 1438 1435 1431 1428 1424 1420 1416 1411 1407 1403 1399 1395 1391 1388 1385 1382 1380 1377 1373 1372 1372 1371 1371 1373 1375 1376 1377 1378 1379 1379 1381 1382 1385 1387 1389 1392 1396 1400 1402 1405 1407 1410 1413 1417 1421 1422 1424 1428 1431 1433 1436 1439 1443 1447 1450 1454 1459 1462 1465
1444 1442 1441 1438 1434 1431 1428 1425 1421 1416 1412 1407 1402 1398 1394 1390 1386 1382 1379 1376 1373 1370 1366 1364 1364 1363 1363 1365 1367 1369 1371 1372 1372 1373 1375 1377 1379 1381 1383 1387 1390 1393 1397 1401 1403 1404 1408 1412 1415 1416 1420 1424 1427 1430 1433 1436 1440 1443 1446 1450 1454 1457 1461
1441 1440 1437 1434 1431 1428 1425 1421 1416 1412 1407 1402 1398 1394 1390 1385 1380 1375 1373 1370 1366 1363 1360 1357 1356 1356 1356 1357 1359 1362 1364 1365 1366 1368 1371 1373 1375 1376 1379 1382 1385 1388 1392 1395 1397 1399 1403 1407 1409 1412 1415 1419 1422 1426 1430 1433 1436 1439 1442 1447 1450 1453 1456
1438 1437 1435 1431 1428 1425 1422 1417 1413 1408 1403 1399 1395 1390 1385 1380 1375 1370 1367 1364 1360 1357 1354 1351 1350 1350 1350 1351 1353 1355 1357 1358 1361 1364 1366 1368 1370 1372 1375 1378 1380 1383 1387 1390 1392 1396 1400 1403 1406 1408 1412 1416 1420 1424 1427 1430 1433 1435 1439 1443 1446 1449 1452
1436 1434 1432 1429 1426 1423 1419 1414 1410 1405 1401 1396 1391 1385 1379 1374 1370 1365 1362 1359 1355 1351 1348 1346 1344 1344 1344 1345 1346 1349 1350 1352 1356 1360 1362 1364 1366 1368 1370 1373 1376 1378 1382 1385 1389 1393 1396 1400 1403 1405 1409 1413 1418 1422 1424 1427 1429 1432 1435 1439 1442 1445 1449
1435 1432 1430 1427 1424 1420 1416 1411 1407 1403 1399 1393 1386 1380 1375 1370 1365 1361 1357 1353 1349 1346 1343 1341 1339 1338 1339 1339 1340 1343 1345 1348 1352 1355 1357 1360 1362 1364 1367 1369 1371 1374 1378 1382 1386 1389 1393 1397 1400 1402 1406 1410 1415 1419 1421 1423 1426 1428 1431 1434 1438 1441 1445
1433 1431 1428 1425 1422 1418 1413 1409 1405 1401 1396 1391 1384 1378 1373 1367 1362 1357 1353 1349 1345 1341 1339 1337 1335 1334 1334 1335 1336 1338 1341 1344 1348 1350 1353 1356 1359 1361 1363 1365 1367 1371 1375 1379 1383 1386 1390 1393 1396 1400 1404 1407 1411 1414 1417 1419 1422 1425 1427 1431 1434 1438 1442
Wind_Speed
16 18 18 16 14 12 10 11 12 12 11 9 9 10 11 11 10 10 11 12 15 18 17 16 18 23 27 28 28 31 34 36 39 39 36 33 29 27 27 26 23 20 16 13 13 12 12 13 14 16 20 21 22 22 20 18 17 16 16 17 17 18 20
13 16 17 17 17 15 12 11 11 12 12 11 10 9 10 10 9 9 11 11 12 15 18 21 20 20 24 28 29 29 31 35 38 39 40 40 34 29 28 29 28 25 22 19 17 15 15 16 15 15 17 19 21 22 21 19 19 18 17 17 16 15 16
10 12 15 17 17 17 16 14 12 11 12 12 12 12 11 10 10 10 10 11 11 12 16 22 24 24 25 29 30 29 30 32 36 39 41 41 39 36 33 32 31 28 25 24 22 21 19 19 19 16 15 18 20 20 21 21 20 19 18 16 16 16 15
9 9 11 14 16 17 17 16 15 13 12 12 14 14 13 13 12 11 10 11 11 12 15 19 22 25 29 30 29 30 32 33 35 38 40 41 43 44 40 35 33 30 26 26 24 23 22 22 20 17 16 17 18 18 19 22 20 19 18 16 17 17 16
9 8 9 11 14 16 17 17 17 16 15 14 13 13 14 14 14 13 12 11 11 11 13 16 20 24 28 30 28 28 31 35 37 38 39 41 44 46 43 38 37 33 29 27 25 23 23 22 21 19 18 16 16 15 16 19 20 19 19 17 17 17 18
11 9 9 10 11 14 16 17 18 19 19 18 16 16 17 16 16 16 14 13 12 11 11 13 18 23 27 30 30 29 29 32 35 36 38 41 42 42 41 41 41 39 35 33 29 25 24 23 22 21 19 17 16 14 14 16 18 19 19 18 17 17 18
12 11 10 11 11 12 14 16 18 20 21 22 22 21 20 19 18 18 18 17 15 14 14 14 15 20 25 30 32 32 31 31 32 34 36 38 39 39 41 42 42 41 41 41 35 30 28 27 26 23 20 19 17 15 15 16 17 18 19 18 18 18 19
13 12 12 12 12 13 14 15 18 20 22 24 25 26 25 23 21 20 20 20 19 19 18 16 15 17 20 25 31 35 35 33 32 33 35 37 38 39 43 45 45 42 43 45 41 36 32 29 27 25 21 20 19 17 17 17 18 19 20 19 18 19 21
14 13 13 14 14 15 15 17 18 20 22 24 26 29 29 27 25 24 23 22 22 21 20 18 16 16 16 19 24 30 37 37 35 34 35 36 37 38 41 45 48 47 45 45 44 42 37 31 29 29 25 22 22 20 19 19 20 21 21 20 19 19 22
14 15 15 17 17 18 18 19 21 22 23 25 27 29 30 30 28 26 25 25 24 23 22 20 19 18 16 17 19 22 29 35 38 37 35 35 38 40 41 42 46 49 48 45 44 44 41 36 34 34 29 26 25 23 21 21 21 21 22 22 21 20 21
16 17 18 19 20 21 22 22 23 24 25 26 28 29 29 28 27 26 26 26 26 25 24 24 22 20 18 18 18 19 21 26 34 38 37 35 35 38 41 41 43 46 48 47 46 46 44 42 39 36 33 29 27 25 23 22 22 21 22 23 22 21 22
17 18 20 22 23 24 25 25 26 27 26 27 27 26 25 24 24 24 25 26 27 26 26 25 24 23 23 21 20 20 19 20 27 35 39 37 35 35 38 40 43 44 44 45 47 47 46 47 44 39 36 33 29 28 24 22 22 21 23 24 21 22 26
19 21 22 24 25 26 26 26 26 25 23 23 23 21 21 22 22 23 24 25 25 26 26 25 25 24 25 24 22 21 20 19 23 29 35 38 37 36 37 39 42 43 43 43 45 47 48 48 47 42 38 34 31 30 27 24 23 21 22 24 23 24 29
20 22 24 25 27 27 23 21 21 21 19 19 20 20 20 19 20 22 24 25 24 24 25 25 25 25 24 24 24 25 24 23 23 25 30 35 37 37 38 40 41 41 43 45 44 45 46 48 49 46 41 35 32 32 29 27 25 21 21 23 23 26 28
22 24 25 26 27 26 20 16 16 17 18 17 18 19 20 18 18 19 22 24 25 25 25 25 25 25 26 27 27 27 26 26 26 26 28 32 36 36 37 40 42 40 40 42 44 45 46 48 50 50 46 39 34 34 31 29 27 24 23 23 24 27 26
24 25 26 27 26 22 17 15 15 16 16 16 17 18 19 19 19 19 22 25 27 28 28 28 28 28 28 29 30 30 29 28 29 29 29 31 33 35 37 39 42 43 41 42 45 46 47 49 51 51 48 42 37 35 33 31 30 27 24 22 23 28 28
25 25 27 25 21 17 17 16 16 16 18 20 20 20 20 21 20 20 23 25 26 28 29 30 31 31 30 30 31 32 32 32 31 30 31 32 31 34 38 39 41 43 43 45 45 45 46 49 52 51 48 43 38 36 35 34 32 29 27 23 22 26 29
25 26 25 21 17 17 18 17 16 17 20 23 24 23 23 23 23 24 26 26 27 29 30 31 32 32 32 32 32 33 34 36 35 33 32 33 33 33 36 40 42 42 42 46 48 46 46 47 49 50 48 44 38 35 36 36 34 31 28 26 25 26 28
25 24 20 17 16 17 17 18 19 20 22 25 25 25 24 23 25 28 30 30 31 31 32 33 34 35 36 35 34 34 33 35 38 38 35 33 34 35 35 38 42 42 41 45 49 48 46 45 45 46 48 47 40 35 34 36 37 34 30 28 28 30 30
23 20 16 15 16 17 18 19 21 22 22 23 24 24 24 24 25 28 31 32 32 32 33 34 35 36 37 36 36 36 35 34 36 38 37 35 35 36 36 36 40 43 44 45 48 48 47 45 44 44 47 49 44 38 36 36 36 35 32 30 31 32 30
19 16 14 15 16 17 19 20 21 21 20 20 21 23 24 25 26 27 30 33 33 33 33 33 34 35 36 37 36 36 36 35 35 35 36 37 36 36 37 37 37 43 48 48 47 47 48 47 44 45 47 49 47 43 41 39 35 33 32 32 32 32 31
15 13 13 15 16 18 19 20 20 20 21 21 21 23 25 25 26 28 30 31 32 32 33 34 36 37 37 38 37 36 36 36 35 34 33 36 38 37 37 37 36 40 47 50 47 45 48 48 46 47 48 50 50 46 44 42 36 32 32 33 34 35 33
13 13 15 16 17 18 19 20 20 20 21 22 22 24 25 25 26 29 30 30 31 32 34 36 38 39 39 39 37 35 34 33 33 34 33 34 38 38 38 38 37 39 46 51 49 46 48 49 48 49 51 52 52 49 46 42 38 35 32 33 37 38 35
12 13 15 17 17 18 18 19 20 21 21 22 23 24 25 26 27 28 29 30 31 32 34 37 39 39 40 41 40 37 35 32 31 32 33 34 36 38 37 37 37 38 43 51 52 50 49 49 48 49 52 53 53 51 48 43 41 40 35 32 38 40 37
12 13 15 16 16 17 19 20 20 21 22 23 24 24 25 26 27 27 27 29 29 30 33 36 38 39 39 40 41 40 39 37 34 32 32 33 35 37 36 35 36 37 40 46 52 53 51 50 48 48 50 53 53 53 51 45 42 43 40 36 38 39 37
12 13 14 15 16 18 20 20 21 22 23 23 24 26 27 28 28 28 28 29 29 29 30 32 35 38 39 39 40 40 40 41 40 37 35 35 35 36 36 35 35 37 39 42 47 52 52 50 50 49 49 52 53 53 53 49 45 44 43 43 42 40 38
12 13 14 15 17 19 20 21 22 23 24 25 26 29 31 32 33 32 29 29 29 30 31 33 34 36 37 38 39 39 41 42 42 40 39 39 38 36 36 36 35 35 38 40 42 46 49 49 50 50 49 50 52 53 54 54 50 45 43 42 42 40 38
13 13 14 16 19 21 21 22 23 23 24 26 29 32 34 35 35 33 30 28 29 30 32 34 36 37 37 37 37 38 40 43 43 41 39 40 43 40 36 36 37 36 37 39 41 43 46 47 49 49 49 49 51 52 53 55 54 49 45 42 41 39 36
14 14 16 18 20 21 22 23 23 23 24 26 28 31 34 34 32 32 30 29 29 30 30 32 35 38 38 37 37 37 39 41 41 42 40 39 43 45 41 37 37 38 38 40 42 43 45 45 45 47 49 50 50 50 51 53 54 52 49 46 42 38 35
15 15 17 19 21 22 24 25 24 23 23 24 26 28 29 29 28 29 30 30 31 32 32 32 34 37 38 37 37 37 38 39 39 41 43 41 40 44 46 42 37 38 39 39 41 44 45 44 43 45 47 48 47 47 48 50 51 51 50 46 40 36 34
15 16 18 20 21 23 26 26 24 21 21 24 27 28 27 26 27 28 29 32 34 35 36 36 36 37 38 36 37 38 38 38 38 38 43 44 40 41 46 46 40 38 38 37 39 44 46 45 45 47 48 47 46 45 45 46 47 47 45 41 37 35 33
16 17 19 20 21 24 28 27 23 23 24 26 28 27 25 25 27 29 31 33 34 34 37 38 35 36 38 36 36 38 38 38 39 38 39 40 38 38 41 43 42 41 38 36 39 43 44 44 46 50 49 47 46 47 46 45 46 45 42 38 36 34 32
16 17 19 20 21 25 29 28 25 25 28 27 26 25 25 25 28 33 32 30 29 31 34 36 32 32 36 35 36 38 38 38 39 39 37 36 36 35 36 38 40 42 41 39 40 42 41 42 45 49 50 47 45 46 47 46 45 44 42 39 35 33 34
15 16 17 18 20 25 31 28 25 26 27 25 24 25 26 26 29 33 30 25 27 30 33 33 30 30 33 33 34 37 38 39 39 37 36 35 34 33 34 37 39 41 43 43 42 39 37 39 42 45 47 46 44 43 44 45 45 43 40 38 36 34 35
14 15 17 18 20 26 30 27 24 26 25 24 25 28 29 29 31 32 28 24 27 30 30 31 30 29 31 32 32 34 38 38 37 36 35 33 32 34 35 37 40 39 40 43 44 40 35 34 36 40 43 42 40 40 41 43 44 42 39 37 35 34 34
14 15 17 18 21 26 28 24 23 25 24 24 27 31 32 32 31 31 29 26 28 30 28 28 28 27 28 30 30 32 36 36 35 36 36 33 32 35 34 35 39 39 37 39 42 39 36 34 35 37 39 39 38 38 39 41 42 40 37 35 34 33 34
13 15 17 18 21 26 27 23 23 24 23 23 27 29 31 31 31 32 31 30 31 31 27 25 26 26 26 26 26 29 33 34 34 36 36 33 33 34 32 32 37 40 38 37 37 36 35 35 35 35 37 37 38 38 39 40 40 37 34 33 34 34 34
Wind_Direction
354 352 347 345 338 323 313 310 310 309 304 295 281 273 269 269 268 265 262 255 250 248 245 241 239 234 228 228 232 236 238 238 236 233 225 217 217 222 226 226 231 236 240 240 233 231 236 236 232 229 231 231 229 229 226 222 222 222 223 220 218 224 229
351 353 348 344 341 337 333 324 313 311 309 302 291 279 272 272 272 272 268 263 256 250 245 240 238 235 229 229 232 234 235 237 238 237 232 225 220 225 229 227 228 235 240 242 240 239 242 243 241 231 224 223 222 225 223 221 219 218 222 221 212 210 216
344 349 348 345 343 342 342 339 329 317 309 304 298 286 274 269 267 270 269 266 262 255 246 241 240 239 231 228 232 236 237 239 239 237 235 233 230 229 230 228 228 232 236 239 238 239 240 241 246 240 219 213 216 220 220 218 217 216 219 220 211 201 205
330 340 343 344 345 344 346 346 342 335 323 312 303 294 284 273 264 262 265 265 264 259 251 244 242 241 235 230 232 236 237 238 240 239 237 236 234 231 229 230 232 233 235 237 236 235 237 237 240 240 228 220 219 219 219 217 214 215 216 217 212 201 200
313 325 332 335 338 340 343 346 346 344 339 328 315 304 298 288 274 264 259 258 262 264 259 250 244 242 239 234 233 236 238 238 239 242 241 238 236 234 230 230 235 236 237 239 239 236 236 236 235 234 232 227 223 219 215 212 211 212 212 213 211 201 198
301 309 317 325 329 332 336 339 340 341 340 335 326 316 310 303 292 281 271 261 255 255 261 259 248 243 241 238 234 235 239 240 239 240 242 241 239 235 232 233 234 235 237 240 238 236 235 234 232 232 231 227 223 220 208 204 209 210 208 210 209 201 200
295 301 308 316 321 326 329 332 334 334 334 334 330 324 316 307 301 293 287 278 265 256 255 261 256 246 242 240 237 236 237 239 240 239 240 240 238 235 233 235 234 232 236 239 237 235 234 232 231 230 230 228 224 221 214 206 208 207 203 203 203 201 204
290 298 304 310 314 318 322 326 329 329 329 329 326 323 318 310 302 295 291 286 278 268 255 254 259 254 247 243 239 237 236 238 239 240 240 238 237 236 232 233 235 233 235 238 238 237 234 231 231 229 227 227 223 220 222 216 211 208 202 200 199 198 204
286 295 301 306 309 313 316 319 323 324 324 323 320 318 315 310 303 295 292 287 283 276 261 251 252 254 251 248 245 240 237 238 238 239 241 238 235 237 235 234 234 233 232 235 238 238 234 231 231 230 226 224 223 222 224 222 219 215 208 205 205 202 206
285 294 299 303 306 309 311 313 316 317 317 316 314 311 308 304 300 295 293 289 284 278 268 257 251 250 251 249 248 245 241 239 238 238 240 241 237 236 236 234 232 231 230 232 236 237 235 231 230 231 228 225 224 225 226 223 221 220 213 208 209 207 207
287 294 298 302 305 307 309 310 311 311 311 310 308 304 300 296 293 292 291 289 285 278 272 265 254 245 246 249 245 246 245 241 238 237 237 239 240 238 236 234 232 232 231 231 233 235 234 231 230 231 229 226 224 223 227 229 226 221 213 209 211 214 215
291 296 299 303 304 306 306 307 307 307 306 305 303 298 292 289 288 287 287 288 286 280 274 269 258 243 239 245 245 242 245 243 240 237 235 235 239 240 239 236 233 233 234 233 234 235 235 234 233 232 230 228 223 221 223 229 231 222 209 205 208 222 228
293 297 300 303 304 305 305 305 305 304 302 300 298 293 286 284 283 282 284 284 283 280 275 270 263 251 242 244 246 244 241 240 242 240 236 234 237 239 240 238 236 236 235 234 234 235 235 235 232 229 228 228 225 223 220 223 232 226 210 204 205 219 230
294 298 301 303 304 304 301 299 299 297 294 293 292 289 285 281 278 278 280 280 278 277 275 271 267 259 250 244 243 244 243 240 239 240 239 237 237 240 241 240 238 238 236 235 235 235 235 234 232 226 225 228 228 225 220 217 225 226 213 205 200 211 224
295 299 302 304 304 301 295 288 288 289 287 286 286 285 283 278 275 275 277 277 276 275 273 271 268 263 256 248 240 238 241 243 240 238 238 239 238 239 241 241 240 237 235 235 237 237 235 234 232 229 229 230 228 226 223 217 220 223 212 201 196 206 219
296 299 302 303 301 297 289 284 283 281 281 281 280 280 281 278 274 273 273 274 275 275 272 271 269 266 262 256 247 240 238 240 242 240 238 240 240 238 238 241 241 238 235 235 238 238 235 233 232 231 230 229 225 224 223 218 219 219 210 198 197 210 218
297 300 301 299 294 288 285 284 282 279 278 280 280 279 280 280 276 273 273 273 273 272 272 272 272 269 265 261 257 249 241 236 238 240 240 239 238 237 238 238 239 241 239 238 239 237 233 233 233 231 229 228 224 223 223 219 217 218 214 200 194 209 219
298 299 298 294 287 285 286 285 282 279 280 282 282 280 279 280 278 276 275 275 273 272 271 270 269 267 265 264 261 256 248 239 236 238 240 240 236 237 239 237 236 239 240 240 239 237 234 234 232 229 228 227 221 218 220 218 214 216 217 203 192 203 215
298 296 294 289 286 287 286 285 283 282 283 283 281 279 278 277 277 279 281 279 276 274 273 271 268 266 265 264 262 260 254 244 238 236 236 238 238 237 239 239 236 236 238 239 238 236 235 233 228 226 226 224 219 214 217 218 214 213 213 204 201 209 213
297 293 290 288 288 288 286 285 285 284 284 282 279 278 278 276 276 279 282 282 277 275 273 271 269 267 265 263 261 260 256 249 242 238 235 235 238 239 238 239 237 234 235 237 236 235 235 232 228 226 227 224 219 215 216 217 214 213 209 202 206 216 217
295 291 289 289 289 287 286 287 287 287 285 282 280 280 279 279 278 278 281 282 280 275 272 269 267 265 264 262 261 259 257 253 246 241 238 235 237 240 239 239 238 234 232 234 236 235 233 232 229 227 227 226 221 216 215 216 214 211 207 200 204 213 216
293 290 290 289 290 290 290 291 290 289 287 284 283 284 283 281 278 278 280 281 279 274 270 267 266 265 263 261 260 258 256 254 248 242 238 237 236 238 239 238 237 234 230 230 235 237 234 232 230 227 227 224 220 217 217 218 215 209 202 201 205 210 211
292 289 287 290 295 296 295 294 293 292 290 288 287 287 286 283 279 279 280 279 278 275 271 268 266 265 263 261 259 255 251 250 248 242 238 236 235 236 237 237 237 236 230 228 232 238 236 234 233 231 229 225 221 220 219 219 216 210 202 202 209 212 211
290 288 289 296 299 299 298 298 297 295 294 292 292 290 287 284 282 280 278 277 276 274 271 270 268 265 262 261 258 254 247 244 244 243 239 236 234 234 235 236 236 236 233 228 229 234 238 237 235 234 231 228 225 223 220 218 216 214 208 204 212 217 218
292 292 295 300 302 302 303 302 300 298 297 296 295 292 288 285 282 280 277 275 273 271 270 271 269 265 261 259 257 255 250 244 241 241 239 236 234 234 233 233 233 234 234 230 227 230 236 237 237 237 234 230 228 225 223 220 218 218 213 209 215 221 224
294 295 298 302 306 307 307 305 304 302 300 298 296 293 290 288 286 282 279 275 272 269 268 267 267 265 262 258 256 254 252 247 242 239 236 232 232 233 232 231 232 232 234 233 228 228 232 235 236 237 236 232 229 227 226 224 223 225 221 219 224 229 231
295 296 301 304 309 310 310 310 309 307 304 302 301 300 298 296 295 290 282 277 273 269 266 265 264 264 262 259 257 254 251 248 244 240 236 230 226 229 231 231 230 231 233 233 229 227 229 232 233 234 236 234 230 229 228 226 224 227 228 229 234 237 239
296 300 303 306 309 311 313 314 312 309 307 305 305 306 305 302 299 293 285 279 276 271 269 267 265 262 260 257 256 252 250 249 245 240 237 233 226 223 226 230 230 230 232 231 228 226 227 229 231 232 233 233 229 225 224 223 223 226 229 233 238 240 242
298 301 304 307 310 312 314 316 314 310 307 306 306 306 305 301 296 291 285 280 275 272 271 269 267 264 260 256 254 251 249 248 245 238 235 235 229 223 220 226 230 230 231 231 228 227 227 227 228 230 230 229 225 220 219 222 224 226 228 231 235 237 239
299 301 306 309 310 313 317 317 316 311 307 305 304 303 301 297 291 287 284 278 275 273 273 274 273 268 262 256 252 249 246 244 242 237 234 234 234 226 220 221 227 230 230 230 227 227 227 224 224 227 228 228 225 219 219 222 222 222 225 229 232 235 235
301 303 307 309 311 317 321 320 316 312 309 307 306 303 299 293 288 285 282 279 277 275 275 280 279 270 263 256 249 245 243 240 238 236 234 235 235 231 222 218 221 226 228 228 227 228 227 223 222 225 226 227 226 220 217 218 217 217 221 224 226 228 230
302 303 307 311 316 320 322 320 317 315 315 312 308 304 299 292 289 288 286 282 279 276 278 284 281 267 259 253 246 242 239 236 235 234 233 233 232 231 226 220 220 223 224 225 228 228 226 222 223 226 227 228 228 225 222 221 220 220 221 221 221 223 228
303 303 306 312 318 322 323 322 320 320 321 317 309 304 301 296 295 296 293 285 280 279 283 288 280 263 254 248 241 239 237 234 233 232 230 229 228 228 226 223 222 223 222 221 226 227 225 224 226 227 227 228 229 228 225 224 224 222 221 221 221 224 228
308 305 309 315 319 322 324 325 323 323 322 317 311 309 307 305 303 302 297 287 284 286 289 291 280 261 254 250 240 235 233 232 230 229 226 226 226 226 224 220 220 223 222 221 222 223 223 225 228 229 228 229 231 231 228 227 225 221 218 220 223 224 227
314 312 315 319 319 322 325 326 325 325 321 317 317 319 320 318 313 309 302 292 292 294 294 294 285 264 254 250 241 233 231 229 228 225 223 223 224 225 222 217 218 222 222 219 219 220 221 223 227 229 229 229 230 230 229 227 223 218 214 217 220 221 222
318 318 321 321 320 325 328 326 325 326 323 322 323 326 329 326 319 315 310 303 303 304 298 292 286 270 254 245 237 229 227 225 224 223 223 223 225 225 220 216 219 221 218 215 216 219 221 223 225 226 227 228 228 228 227 223 218 214 212 214 216 216 216
320 321 324 322 324 331 332 327 326 328 328 328 329 329 331 331 326 322 317 312 311 312 305 292 283 272 257 242 229 222 221 221 222 223 224 223 223 221 216 216 220 220 219 219 218 218 219 220 222 224 225 225 224 224 225 220 214 212 213 213 211 209 206